Disclaimer

Please do not use the information listed here in-flight or in-navigation, as they are not provided to us by the airports but are provided by volunteers, so they might be outdated.

Search


Regions


Airport information page

Radio informations:
Tower (TWR) - 118.1 MHz
Ground (GND) - 121.9 MHz

Airport informations:
Latitude: 39° 48' 49.78" N
Longitude: 036° 54' 12.59" E
Elevation: 5236 feet - 1596 meters
Operating hours: Remarks
Operating agency: Civil government, landing fees and diplomatic clearance may be required
Timezone: UTC+2(+3DT) - Dates notified by NOTAM
Fuel: Jet A1, without icing nhibitor.

100/130 octane gasoline, leaded, MIL-L-5572F (GREEN)

Runway information:
01/19 - 12503 x 98 feet< - >3811 x 30 meters

Recent METARs:
LTAR 170850Z 29009KT 4000 -SN BR SCT005 BKN015 OVC060 M08/M10 Q1012
LTAR 170950Z 29009KT 4000 -SN BR BKN006 BKN015 OVC060 M08/M09 Q1012
LTAR 171019Z 28008KT 4000 -SN BR SCT006 SCT015 OVC060 M08/M09 Q1012 RMK RWY19 25006KT

Airport on the map: